Zurück zum Katalog

SL-12 DEB

LostHEO
NORAD 28985·DEBRIS·🇷🇺 Russia

Gestartet Jul 30, 1992 von Baikonur Cosmodrome

Loading…

Nächste Überflüge (nächste 24 Stunden)

TLE

VeraltetSource: Space-Track

Epoche: Jul 23, 2017, 18:33 UTC

1 28985U 92047AN  17204.77302166 -.00000011  00000-0  00000-0 0  9993
2 28985  64.0875 130.0837 3771459 322.9356  16.1756  6.52731338268361

Verfolge SL-12 DEB in Echtzeit mit AllMySat

Download on the App Store